Weather Roundup
Issued by NWS Springfield, MO

Home | Current Version | Previous Version | Text Only | Print | Product List | Glossary On
Versions: 1 2 3 4 5 6 7 8 9 10 11 12 13 14 15 16 17 18 19 20 21 22 23 24 25 26 27 28 29 30 31 32 33 34 35 36 37 38 39 40 41 42 43 44 45 46 47 48 49 50
000
NZUS99 KSGF 210207
HRRSGF

HOURLY WEATHER
NATIONAL WEATHER SERVICE SPRINGFIELD MO
900 PM CDT WED AUG 20 2014

......SGF CWA......

CITY           SKY/WX    TMP DP  RH WIND       PRES   REMARKS
SPRINGFIELD    CLEAR     82  63  52 S10       29.94R
JOPLIN         CLEAR     82  61  48 S13       29.92R
WEST PLAINS    PTCLDY    81  58  45 SW5       30.00R
ROLLA          CLOUDY    74  70  87 E6        29.95R
OSAGE BEACH    PTCLDY    79  70  73 S3        29.92R
BRANSON        PTCLDY    81  64  57 S7        29.98R

......SURROUNDING SGF CWA......

CITY           SKY/WX    TMP DP  RH WIND       PRES   REMARKS
CHANUTE        CLEAR     83  67  58 S14       29.87R
PARSONS        CLEAR     84  67  56 S9        29.88R
COFFEYVILLE    CLEAR     83  69  62 S14       29.87R
EMPORIA        PTCLDY    83  67  58 S12       29.83R
GROVE OK       CLEAR     79  64  61 SE6       29.92S
ROGERS AR      CLEAR     80  64  58 S9        29.98R
SILOAM SPRINGS CLEAR     79  63  57 S8        29.97R
HARRISON AR    CLEAR     76  66  71 S5        29.99R
NEAR YELLVILLE CLEAR     82  63  51 CALM      29.97R

......KANSAS AND MISSOURI......

CITY           SKY/WX    TMP DP  RH WIND       PRES   REMARKS
KANSAS CTY INT PTCLDY    82  71  69 S9        29.84R
DOWNTOWN KC    CLEAR     88  70  55 S12       29.83R HX  93
COLUMBIA       PTCLDY    76  74  93 SE7       29.92R
SEDALIA        CLEAR     79  72  79 S8        29.89R
ST JOSEPH      CLEAR     82  75  79 SE3       29.81R
ST LOUIS       TSTM      76  71  85 S10       29.97F
SPIRIT OF STL  CLOUDY    75  72  90 W3        29.94F
KIRKSVILLE     CLEAR     78  74  87 SE5       29.89R
WICHITA        PTCLDY    86  64  47 S16       29.82R
TOPEKA         PTCLDY    88  70  55 S10       29.81R HX  93
OLATHE         CLEAR     80  71  74 S8        29.85R

......TENNESSEE......

CITY           SKY/WX    TMP DP  RH WIND       PRES   REMARKS
MEMPHIS        CLEAR     84  72  67 S9        30.04R
NASHVILLE      CLOUDY    71  70  96 SW3       30.09R

......ARKANSAS.......

CITY           SKY/WX    TMP DP  RH WIND       PRES   REMARKS
FAYETTEVILLE   CLEAR     79  66  64 S5        29.98R
FT SMITH       CLEAR     83  71  67 S3        29.95R
LITTLE ROCK    PTCLDY    82  74  76 S6        29.99R

......OKLAHOMA.......

CITY           SKY/WX    TMP DP  RH WIND       PRES   REMARKS
TULSA          PTCLDY    87  70  56 S12G20    29.87R HX  92
PONCA CITY     CLEAR     88  66  48 S17G25    29.84R HX  90
MCALESTER      CLEAR     83  70  64 SE6       29.93R
OKLAHOMA CITY  CLEAR     86  65  49 S16       29.88R

......IOWA............

CITY           SKY/WX    TMP DP  RH WIND       PRES   REMARKS
DES MOINES     PTCLDY    78  73  84 S5        29.82S
QUAD CITIES    PTCLDY    72  68  87 SE3       29.88F

......ILLINOIS........

CITY           SKY/WX    TMP DP  RH WIND       PRES   REMARKS
QUINCY         CLEAR     80  76  87 SE8       29.91R
CHICAGO        PTCLDY    78  67  68 W10       29.91R




USA.gov is the U.S. government's official web portal to all federal, state and local government web resources and services.